sat.trackr.live / text

‹ back to catalog

STARLINK-3445

NORAD 51717 · 2022-016D

PAYLOAD ACTIVE UNKNOWN

§ Identity

Operator
Country
US
Launch date
2022-02-21
Launch site
AFETR
Launch vehicle
Mass (kg)
RCS (m²)

Purposes: comms

External: N2YO · Heavens-Above · Gunter

§ Orbital elements

Epoch: 2026-09-20T00:29:05.567712Z

Period
94.01 min
Inclination
53.1597°
Eccentricity
0.0001254
Mean motion
15.31698627 rev/d
Perigee alt
469.9 km
Apogee alt
471.6 km
Semi-major
6,848.9 km
B*
8.9737e-7
RAAN
162.0474°
Arg perigee
90.8096°
Mean anomaly
269.3049°
Rev number
25,296

§ Raw data

STARLINK-34451 51717U 22016D   26263.02020333 -.00000337  00000+0  89737-6 0  99972 51717  53.1597 162.0474 0001254  90.8096 269.3049 15.31698627252966

JSON: /api/v1/satellites/51717 · /tle

For live sub-satellite position, see the globe view (requires WebGL).

§ Visibility from observer

Set your observer location to see the next 7 days of passes ≥ 10°. The values pass through the URL so the page stays shareable.

No JS? Fill the form by hand. The geolocation button needs JavaScript.